Regional Weather Roundup
Issued by NWS State College, PA

Home | Current Version | Previous Version | Text Only | Print | Product List | Glossary Off
Versions: 1 2 3 4 5 6 7 8 9 10 11 12 13 14 15 16 17 18 19 20 21 22 23 24 25 26 27 28 29 30 31 32 33 34 35 36 37 38 39 40 41 42 43 44 45 46 47 48 49 50

000
ASUS41 KCTP 232103
RWRCTP

REGIONAL WEATHER ROUNDUP
NATIONAL WEATHER SERVICE STATE COLLEGE PA
500 PM EDT SUN APR 23 2017

Note: "fair" indicates few or no clouds below 12,000 feet with no
significant weather and/or obstructions to visibility.

* = STATION THAT DOES NOT REPORT PRECIPITATION /E.G. RAIN...SNOW...ETC/
    THUNDER OR FOG.

PAZ002>004-007>009-013>016-020>023-029>032-232200-
WESTERN PENNSYLVANIA

CITY           SKY/WX    TMP DP  RH WIND       PRES   REMARKS
ERIE           SUNNY     58  31  35 N7        30.06F
MEADVILLE      SUNNY     67  28  23 SW5       30.03F
FRANKLIN*      SUNNY     70  27  19 CALM      30.03S
NEW CASTLE     FAIR      68  33  27 NW6       30.03F
BEAVER COUNTY  SUNNY     66  34  30 CALM      30.02F
BUTLER*        PTSUNNY   66  36  32 E5        30.03F
PITTSBURGH INT PTSUNNY   67  32  27 E6        30.01F
PITTSBURGH     MOSUNNY   66  29  24 VRB6      30.01S
INDIANA*       SUNNY     68  27  21 SE6       30.04S
LATROBE        SUNNY     66  28  24 E14       30.02F
WASHINGTON CO* CLOUDY    64  36  34 NE3       30.03F
$$

PAZ004>006-010>012-017>019-024>028-033>037-041-042-045-046-049>053-232200-
CENTRAL PENNSYLVANIA

CITY           SKY/WX    TMP DP  RH WIND       PRES   REMARKS
BRADFORD       SUNNY     68  24  19 N5        30.02F
DUBOIS         SUNNY     67  26  21 CALM      30.02F
CLEARFIELD     NOT AVBL
JOHNSTOWN      MOSUNNY   61  30  31 SE8       30.03F
ALTOONA        MOSUNNY   65  36  34 VRB3      30.04F
STATE COLLEGE  SUNNY     66  36  32 CALM      30.03F
WILLIAMSPORT   CLOUDY    69  27  20 S6        30.02F
SELINSGROVE    CLOUDY    64  44  48 SW5       30.04F
FT INDIANTOWN  MOSUNNY   65  28  24 E5        30.05F
CAPITAL CITY   MOSUNNY   65  38  36 E7        30.05F
HARRISBURG     PTSUNNY   64  45  49 CALM      30.05F
YORK           PTSUNNY   63  41  44 E6        30.06S
$$

PAZ038>040-043-044-047-048-054-055-060>062-067>071-232200-
EASTERN PENNSYLVANIA

CITY           SKY/WX    TMP DP  RH WIND       PRES   REMARKS
SCRANTON       SUNNY     69  28  21 W6        30.02S
MOUNT POCONO   CLOUDY    63  32  31 SE8       30.04S
ALLENTOWN      MOSUNNY   66  35  31 CALM      30.05F
QUAKERTOWN*    CLEAR     66  36  32 CALM      30.07S
READING        MOSUNNY   67  33  28 E5        30.04F
LANCASTER      MOSUNNY   64  44  48 SE3       30.06S
COATESVILLE    PTCLDY    63  39  42 VRB3      30.08R
POTTSTOWN      SUNNY     64  36  35 S3        30.07F
BLUE BELL      MOSUNNY   63  41  45 S5        30.08R
DOYLESTOWN     SUNNY     64  36  35 S5        30.05F
WILLOW GROVE   NOT AVBL
NORTH PHILA    MOSUNNY   65  40  39 SE3       30.08S
PHILADELPHIA   CLOUDY    64  38  38 CALM      30.07S
$$




USA.gov is the U.S. government's official web portal to all federal, state and local government web resources and services.